"startDT [UTC]","vpos","CH4 [ppm]","stdev(CH4) [ppm]","CO2 [ppm]","stdev(CO2) [ppm]","H2O_reported [%]","stdev(H2O_reported)","CavityPressure [torr]","CavityTemp [C]","OutletValve","CH4_dry [ppm]","CO2_dry [ppm]","DasTemp [C]","EtalonTemp [C]","WarmBoxTemp [C]","MPVPosition","T_ECpre [C]","T_EC1 [C]","T_EC2 [C]","p_inlet [hPa]","p_in [hPa]","p_out [hPa]","T_inlet [C]","RH_inlet [%]","dwpt_inlet [C]","T_vent [C]","RH_vent [%]","dwpt_vent [C]","flow_vent [l min-1]","flow_inlet [l min-1]","dwpt_sample [C]","T_room [C]"
2016-10-27 00:00:00,0.0,1.92596,0.00038,399.430,0.042,0.2560,0.0017,140.000,45.000,31682.75088,1.93082,400.670,36.351,45.070,45.000,0.00,0.07,-272.87,-272.91,-7,526,-948,20.8,8.1,-14.6,21.2,7.9,-14.5,0.49,1.85,-10.2,27.4
2016-10-27 00:01:00,0.0,1.92603,0.00030,399.409,0.025,0.2556,0.0017,140.001,45.000,31682.21455,1.93091,400.645,36.321,45.070,45.000,0.00,0.07,-272.89,-272.92,-8,526,-948,20.8,8.0,-14.6,21.2,7.9,-14.5,0.49,1.90,-10.2,27.4
2016-10-27 00:02:00,0.0,1.92578,0.00045,399.382,0.049,0.2539,0.0021,140.002,45.000,31683.77627,1.93066,400.608,36.316,45.070,45.000,0.00,0.07,-272.88,-272.93,-7,526,-948,20.8,8.0,-14.7,21.2,7.9,-14.6,0.49,2.05,-10.2,27.4
2016-10-27 00:03:00,0.0,1.92564,0.00031,399.369,0.045,0.2520,0.0013,139.998,45.000,31681.97746,1.93044,400.589,36.340,45.071,45.000,0.00,0.07,-272.88,-272.92,-7,525,-948,20.7,7.9,-14.9,21.2,7.8,-14.7,0.49,1.74,-10.2,27.4
2016-10-27 00:04:00,0.0,1.92571,0.00036,399.384,0.034,0.2497,0.0019,140.001,45.000,31680.90602,1.93047,400.592,36.358,45.070,45.000,0.00,0.07,-272.89,-272.92,-8,526,-948,20.7,7.9,-14.9,21.2,7.8,-14.7,0.49,2.12,-10.2,27.4
2016-10-27 00:05:00,0.0,1.92570,0.00033,399.413,0.033,0.2493,0.0014,140.003,45.000,31681.09705,1.93045,400.617,36.352,45.070,45.000,0.00,0.07,-272.88,-272.92,-6,526,-948,20.7,7.8,-15.0,21.2,7.7,-14.8,0.49,1.77,-10.2,27.4
2016-10-27 00:06:00,0.0,1.92574,0.00032,399.400,0.033,0.2480,0.0022,140.000,45.000,31681.95974,1.93048,400.600,36.362,45.070,45.000,0.00,0.07,-272.88,-272.91,-7,526,-948,20.7,7.8,-15.0,21.2,7.7,-14.9,0.49,1.99,-10.2,27.4
2016-10-27 00:07:00,0.0,1.92562,0.00025,399.391,0.026,0.2503,0.0017,140.002,45.000,31681.36522,1.93041,400.601,36.375,45.070,45.000,0.00,0.07,-272.88,-272.92,-8,526,-948,20.7,7.9,-14.9,21.2,7.7,-14.8,0.50,1.97,-10.2,27.4
2016-10-27 00:08:00,0.0,1.92570,0.00033,399.382,0.033,0.2498,0.0015,139.997,45.000,31679.09488,1.93044,400.590,36.375,45.070,45.000,0.00,0.07,-272.89,-272.92,-6,526,-948,20.7,7.9,-14.9,21.2,7.8,-14.8,0.49,1.79,-10.2,27.4
2016-10-27 00:09:00,0.0,1.92548,0.00031,399.374,0.043,0.2486,0.0017,140.002,45.000,31680.99040,1.93025,400.578,36.374,45.070,45.000,0.00,0.07,-272.89,-272.92,-8,526,-948,20.7,7.8,-15.0,21.2,7.7,-14.8,0.49,2.12,-10.3,27.4
2016-10-27 00:10:00,0.0,1.92528,0.00042,399.339,0.036,0.2473,0.0022,139.999,45.000,31681.06922,1.93001,400.532,36.373,45.070,45.000,0.00,0.07,-272.87,-272.91,-8,525,-948,20.7,7.8,-15.1,21.2,7.7,-14.9,0.49,1.73,-10.2,27.4
2016-10-27 00:11:00,0.0,1.92530,0.00052,399.343,0.036,0.2461,0.0018,139.998,45.000,31681.30184,1.92997,400.533,36.375,45.070,45.000,0.00,0.07,-272.89,-272.92,-6,526,-948,20.7,7.8,-15.1,21.2,7.7,-14.9,0.49,2.07,-10.2,27.4
2016-10-27 00:12:00,0.0,1.92566,0.00042,399.395,0.030,0.2462,0.0018,140.000,45.000,31677.93229,1.93034,400.585,36.372,45.070,45.000,0.00,0.07,-272.88,-272.93,-8,526,-948,20.7,7.8,-15.1,21.2,7.7,-14.9,0.49,1.87,-10.3,27.4
2016-10-27 00:13:00,0.0,1.92559,0.00027,399.359,0.033,0.2448,0.0018,140.001,45.000,31678.02813,1.93027,400.543,36.374,45.070,45.000,0.00,0.07,-272.87,-272.92,-7,526,-949,20.7,7.7,-15.2,21.2,7.6,-15.0,0.49,1.87,-10.2,27.4
2016-10-27 00:14:00,0.0,1.92575,0.00040,399.356,0.033,0.2445,0.0023,140.000,45.000,31677.75545,1.93041,400.538,36.374,45.070,45.000,0.00,0.07,-272.88,-272.92,-6,525,-948,20.7,7.7,-15.1,21.2,7.6,-15.0,0.50,2.08,-10.2,27.4
2016-10-27 00:15:00,0.0,1.92585,0.00035,399.370,0.041,0.2445,0.0019,140.000,45.000,31676.55156,1.93052,400.551,36.375,45.070,45.000,0.00,0.07,-272.88,-272.93,-8,525,-948,20.7,7.7,-15.2,21.2,7.6,-15.0,0.49,1.73,-10.3,27.4
2016-10-27 00:16:00,0.0,1.92569,0.00028,399.347,0.039,0.2451,0.0026,140.001,45.000,31677.33009,1.93034,400.532,36.374,45.070,45.000,0.00,0.07,-272.88,-272.92,-7,526,-948,20.7,7.8,-15.1,21.2,7.6,-15.0,0.49,2.12,-10.2,27.4
2016-10-27 00:17:00,0.0,1.92578,0.00038,399.361,0.052,0.2444,0.0015,140.001,45.000,31677.91926,1.93046,400.541,36.364,45.070,45.000,0.00,0.07,-272.88,-272.91,-7,525,-948,20.7,7.7,-15.2,21.2,7.6,-15.0,0.49,1.80,-10.2,27.4
2016-10-27 00:18:00,0.0,1.92564,0.00025,399.333,0.022,0.2443,0.0019,140.000,45.000,31677.75054,1.93030,400.514,36.368,45.070,45.000,0.00,0.07,-272.89,-272.92,-8,525,-948,20.7,7.7,-15.1,21.2,7.6,-15.0,0.49,1.97,-10.3,27.4
2016-10-27 00:19:00,0.0,1.92552,0.00042,399.353,0.029,0.2418,0.0018,140.001,45.000,31678.71478,1.93013,400.522,36.370,45.070,45.000,0.00,0.07,-272.88,-272.92,-6,525,-948,20.7,7.7,-15.2,21.2,7.6,-15.1,0.49,2.00,-10.3,27.4
2016-10-27 00:20:00,0.0,1.92560,0.00048,399.366,0.038,0.2432,0.0021,140.002,45.000,31676.18134,1.93024,400.542,36.336,45.070,45.000,0.00,0.07,-272.88,-272.91,-7,525,-948,20.7,7.7,-15.3,21.2,7.6,-15.1,0.49,1.77,-10.3,27.4
2016-10-27 00:21:00,0.0,1.92573,0.00039,399.344,0.041,0.2427,0.0023,140.000,45.000,31675.40518,1.93034,400.516,36.318,45.071,45.000,0.00,0.07,-272.88,-272.92,-8,525,-948,20.7,7.7,-15.2,21.2,7.6,-15.0,0.49,2.13,-10.3,27.4
2016-10-27 00:22:00,0.0,1.92600,0.00037,399.346,0.050,0.2417,0.0017,139.997,45.000,31672.98291,1.93063,400.515,36.313,45.071,45.000,0.00,0.07,-272.88,-272.92,-6,526,-949,20.7,7.7,-15.3,21.2,7.5,-15.1,0.49,1.74,-10.3,27.4
2016-10-27 00:23:00,0.0,1.92590,0.00036,399.326,0.033,0.2438,0.0012,140.000,45.000,31673.44808,1.93054,400.505,36.306,45.071,45.000,0.00,0.07,-272.88,-272.91,-8,525,-948,20.7,7.7,-15.2,21.2,7.6,-15.1,0.49,2.05,-10.3,27.4
2016-10-27 00:24:00,0.0,1.92571,0.00051,399.297,0.031,0.2416,0.0023,140.002,45.000,31674.21221,1.93033,400.464,36.305,45.071,45.000,0.00,0.07,-272.87,-272.92,-8,525,-948,20.7,7.6,-15.3,21.2,7.6,-15.1,0.50,1.92,-10.3,27.4
2016-10-27 00:25:00,0.0,1.92570,0.00035,399.317,0.036,0.2398,0.0023,140.000,45.000,31675.58615,1.93026,400.475,36.313,45.071,45.000,0.00,0.07,-272.88,-272.92,-7,524,-948,20.7,7.6,-15.4,21.1,7.5,-15.2,0.49,1.83,-10.3,27.4
2016-10-27 00:26:00,0.0,1.92570,0.00032,399.343,0.036,0.2397,0.0015,140.000,45.000,31675.77099,1.93028,400.502,36.318,45.071,45.000,0.00,0.07,-272.89,-272.92,-8,528,-948,20.7,7.6,-15.4,21.2,7.5,-15.2,0.49,2.10,-10.3,27.4
2016-10-27 00:27:00,0.0,1.92583,0.00034,399.322,0.035,0.2412,0.0023,140.001,45.000,31675.71883,1.93041,400.487,36.318,45.071,45.000,0.00,0.07,-272.87,-272.91,-8,524,-948,20.7,7.6,-15.3,21.1,7.5,-15.2,0.49,1.72,-10.3,27.4
2016-10-27 00:28:00,0.0,1.92575,0.00040,399.342,0.041,0.2383,0.0013,140.001,45.000,31676.17375,1.93030,400.494,36.319,45.070,45.000,0.00,0.07,-272.89,-272.92,-7,522,-948,20.7,7.6,-15.4,21.2,7.5,-15.2,0.49,2.10,-10.3,27.4
2016-10-27 00:29:00,0.0,1.92581,0.00035,399.304,0.027,0.2394,0.0022,140.003,45.000,31676.36440,1.93039,400.462,36.309,45.070,45.000,0.00,0.07,-272.88,-272.93,-8,526,-948,20.7,7.6,-15.4,21.1,7.5,-15.3,0.49,1.85,-10.3,27.3
2016-10-27 00:30:00,0.0,1.92583,0.00043,399.335,0.025,0.2366,0.0018,140.001,45.000,31676.50952,1.93032,400.477,36.309,45.070,45.000,0.00,0.07,-272.88,-272.91,-9,528,-948,20.7,7.5,-15.5,21.1,7.4,-15.3,0.49,1.90,-10.3,27.4
2016-10-27 00:31:00,0.0,1.92575,0.00041,399.318,0.024,0.2357,0.0022,139.997,45.000,31675.46209,1.93026,400.457,36.312,45.070,45.000,0.00,0.07,-272.88,-272.92,-6,521,-948,20.7,7.5,-15.6,21.1,7.4,-15.4,0.50,2.06,-10.3,27.3
2016-10-27 00:32:00,0.0,1.92571,0.00035,399.280,0.034,0.2342,0.0015,140.000,45.000,31675.41384,1.93018,400.413,36.312,45.070,45.000,0.00,0.07,-272.88,-272.92,-8,528,-948,20.6,7.4,-15.7,21.1,7.3,-15.5,0.49,1.73,-10.3,27.3
2016-10-27 00:33:00,0.0,1.92547,0.00031,399.269,0.035,0.2314,0.0021,139.999,45.000,31676.43009,1.92989,400.386,36.308,45.070,45.000,0.00,0.07,-272.88,-272.92,-7,526,-949,20.7,7.4,-15.8,21.1,7.3,-15.6,0.49,2.13,-10.3,27.3
2016-10-27 00:34:00,0.0,1.92552,0.00042,399.268,0.035,0.2298,0.0026,139.998,45.000,31675.02412,1.92990,400.380,36.285,45.070,45.000,0.00,0.07,-272.87,-272.91,-7,524,-950,20.7,7.3,-15.9,21.1,7.2,-15.7,0.50,1.79,-10.3,27.3
2016-10-27 00:35:00,0.0,1.92566,0.00042,399.284,0.035,0.2274,0.0021,140.000,45.000,31677.39269,1.93002,400.379,36.266,45.070,45.000,0.00,0.07,-272.89,-272.92,-8,525,-948,20.6,7.2,-16.0,21.1,7.1,-15.8,0.49,1.96,-10.3,27.3
2016-10-27 00:36:00,0.0,1.92563,0.00038,399.313,0.034,0.2308,0.0018,140.000,45.000,31676.33235,1.93001,400.428,36.252,45.071,45.000,0.00,0.07,-272.88,-272.92,-7,526,-946,20.7,7.3,-15.9,21.1,7.2,-15.8,0.50,2.01,-10.3,27.3
2016-10-27 00:37:00,0.0,1.92561,0.00029,399.271,0.040,0.2318,0.0018,140.000,45.000,31675.62329,1.93001,400.391,36.256,45.071,45.000,0.00,0.07,-272.88,-272.91,-7,525,-950,20.7,7.4,-15.8,21.1,7.3,-15.6,0.49,1.76,-10.3,27.3
2016-10-27 00:38:00,0.0,1.92577,0.00037,399.303,0.037,0.2302,0.0019,140.001,45.000,31675.43217,1.93017,400.414,36.250,45.071,45.000,0.00,0.07,-272.88,-272.92,-8,525,-948,20.6,7.3,-15.9,21.1,7.2,-15.6,0.49,2.13,-10.3,27.3
2016-10-27 00:39:00,0.0,1.92560,0.00037,399.310,0.039,0.2289,0.0014,140.001,45.000,31677.33022,1.92997,400.414,36.251,45.071,45.000,0.00,0.07,-272.88,-272.92,-7,525,-948,20.7,7.3,-15.9,21.1,7.2,-15.7,0.49,1.75,-10.3,27.3
2016-10-27 00:40:00,0.0,1.92592,0.00037,399.353,0.039,0.2287,0.0025,140.000,45.000,31676.17785,1.93029,400.459,36.254,45.071,45.000,0.00,0.07,-272.88,-272.92,-7,526,-947,20.6,7.3,-15.9,21.1,7.2,-15.7,0.49,2.01,-10.3,27.3
2016-10-27 00:41:00,0.0,1.92609,0.00036,399.366,0.035,0.2287,0.0020,140.002,45.000,31676.08620,1.93042,400.470,36.250,45.071,45.000,0.00,0.07,-272.87,-272.92,-8,526,-949,20.6,7.3,-15.9,21.1,7.2,-15.7,0.50,1.96,-10.4,27.3
2016-10-27 00:42:00,0.0,1.92596,0.00032,399.425,0.030,0.2287,0.0017,140.000,45.000,31673.45751,1.93032,400.529,36.250,45.071,45.000,0.00,0.07,-272.88,-272.92,-6,525,-948,20.7,7.3,-15.9,21.1,7.2,-15.7,0.49,1.79,-10.4,27.3
2016-10-27 00:43:00,0.0,1.92587,0.00041,399.394,0.040,0.2320,0.0025,140.003,45.000,31674.99273,1.93031,400.515,36.251,45.070,45.000,0.00,0.07,-272.88,-272.92,-8,525,-948,20.6,7.4,-15.8,21.1,7.3,-15.6,0.50,2.13,-10.4,27.3
2016-10-27 00:44:00,0.0,1.92575,0.00025,399.351,0.021,0.2340,0.0019,140.001,45.000,31675.08574,1.93020,400.482,36.250,45.070,45.000,0.00,0.07,-272.88,-272.92,-8,526,-949,20.7,7.4,-15.7,21.1,7.3,-15.5,0.49,1.73,-10.4,27.3
2016-10-27 00:45:00,0.0,1.92591,0.00034,399.381,0.030,0.2357,0.0022,140.000,45.000,31674.97955,1.93039,400.519,36.249,45.070,45.000,0.00,0.07,-272.89,-272.92,-6,525,-949,20.6,7.5,-15.6,21.1,7.4,-15.4,0.49,2.05,-10.4,27.3
2016-10-27 00:46:00,0.0,1.92600,0.00037,399.391,0.031,0.2371,0.0018,140.000,45.000,31675.44595,1.93050,400.538,36.235,45.070,45.000,0.00,0.07,-272.88,-272.92,-8,525,-948,20.6,7.5,-15.5,21.1,7.4,-15.4,0.50,1.91,-10.4,27.3
2016-10-27 00:47:00,0.0,1.92613,0.00036,399.352,0.038,0.2372,0.0015,140.003,45.000,31675.12336,1.93066,400.497,36.244,45.070,45.000,0.00,0.07,-272.88,-272.91,-7,525,-949,20.6,7.5,-15.5,21.1,7.4,-15.3,0.49,1.83,-10.3,27.3
2016-10-27 00:48:00,0.0,1.92617,0.00040,399.355,0.031,0.2358,0.0013,140.002,45.000,31675.31250,1.93068,400.495,36.232,45.070,45.000,0.00,0.07,-272.88,-272.92,-6,525,-949,20.6,7.5,-15.5,21.1,7.4,-15.3,0.50,2.11,-10.4,27.3
2016-10-27 00:49:00,0.0,1.92612,0.00030,399.318,0.036,0.2383,0.0018,139.999,45.000,31674.64942,1.93064,400.468,36.241,45.070,45.000,0.00,0.07,-272.88,-272.92,-8,525,-948,20.7,7.6,-15.5,21.1,7.4,-15.3,0.49,1.73,-10.4,27.3
2016-10-27 00:50:00,0.0,1.92616,0.00037,399.374,0.033,0.2393,0.0017,140.002,45.000,31675.59653,1.93071,400.530,36.249,45.070,45.000,0.00,0.07,-272.88,-272.91,-7,526,-949,20.6,7.6,-15.4,21.1,7.5,-15.2,0.49,2.09,-10.4,27.3
2016-10-27 00:51:00,0.0,1.92622,0.00035,399.361,0.020,0.2403,0.0017,140.004,45.000,31677.63208,1.93081,400.523,36.248,45.070,45.000,0.00,0.07,-272.87,-272.92,-6,525,-949,20.6,7.7,-15.3,21.1,7.5,-15.2,0.50,1.86,-10.4,27.3
2016-10-27 00:52:00,0.0,1.92627,0.00034,399.354,0.026,0.2406,0.0020,140.002,45.000,31679.52905,1.93088,400.517,36.250,45.070,45.000,0.00,0.07,-272.89,-272.92,-8,525,-949,20.7,7.7,-15.3,21.1,7.6,-15.1,0.49,1.88,-10.4,27.3
2016-10-27 00:53:00,0.0,1.92620,0.00042,399.328,0.030,0.2397,0.0016,140.001,45.000,31678.32955,1.93078,400.485,36.245,45.070,45.000,0.00,0.07,-272.88,-272.92,-7,525,-949,20.6,7.6,-15.4,21.1,7.5,-15.2,0.50,2.08,-10.4,27.3
2016-10-27 00:54:00,0.0,1.92628,0.00033,399.345,0.028,0.2400,0.0018,140.000,45.000,31676.45895,1.93082,400.505,36.216,45.070,45.000,0.00,0.07,-272.87,-272.91,-7,525,-948,20.7,7.6,-15.3,21.0,7.6,-15.1,0.49,1.73,-10.4,27.3
2016-10-27 00:55:00,0.0,1.92643,0.00041,399.321,0.032,0.2406,0.0016,140.002,45.000,31677.79319,1.93105,400.484,36.197,45.070,45.000,0.00,0.07,-272.89,-272.92,-8,525,-948,20.6,7.7,-15.4,21.1,7.6,-15.1,0.49,2.12,-10.4,27.3
2016-10-27 00:56:00,0.0,1.92627,0.00033,399.320,0.038,0.2414,0.0014,140.002,45.000,31679.45871,1.93085,400.486,36.202,45.071,45.000,0.00,0.07,-272.88,-272.93,-7,525,-949,20.6,7.7,-15.3,21.1,7.6,-15.1,0.49,1.82,-10.4,27.3
2016-10-27 00:57:00,0.0,1.92641,0.00028,399.323,0.028,0.2432,0.0016,140.001,45.000,31677.47272,1.93108,400.498,36.201,45.071,45.000,0.00,0.07,-272.88,-272.91,-7,525,-948,20.6,7.7,-15.2,21.1,7.6,-15.1,0.49,1.92,-10.4,27.3
2016-10-27 00:58:00,0.0,1.92615,0.00028,399.286,0.030,0.2440,0.0015,140.000,45.000,31679.66885,1.93081,400.465,36.223,45.071,45.000,0.00,0.07,-272.88,-272.92,-8,525,-949,20.6,7.8,-15.2,21.1,7.6,-15.0,0.50,2.05,-10.4,27.3
2016-10-27 00:59:00,0.0,1.92648,0.00030,399.342,0.039,0.2437,0.0011,139.999,45.000,31675.99901,1.93111,400.520,36.245,45.071,45.000,0.00,0.07,-272.88,-272.92,-6,526,-949,20.6,7.7,-15.2,21.1,7.6,-15.0,0.49,1.74,-10.4,27.3
2016-10-27 01:00:00,0.0,1.92660,0.00033,399.353,0.033,0.2420,0.0017,140.001,45.000,31675.76117,1.93121,400.522,36.243,45.070,45.000,0.00,0.07,-272.88,-272.91,-7,525,-948,20.6,7.7,-15.3,21.0,7.6,-15.1,0.49,2.13,-10.4,27.3
2016-10-27 01:01:00,0.0,1.92666,0.00043,399.354,0.039,0.2394,0.0016,140.000,45.000,31675.74659,1.93121,400.512,36.244,45.070,45.000,0.00,0.07,-272.87,-272.91,-8,525,-949,20.6,7.6,-15.4,21.1,7.6,-15.1,0.50,1.79,-10.4,27.3
2016-10-27 01:02:00,0.0,1.92698,0.00032,399.401,0.034,0.2391,0.0021,140.001,45.000,31674.61241,1.93156,400.555,36.243,45.070,45.000,0.00,0.07,-272.89,-272.91,-6,525,-948,20.6,7.6,-15.4,21.1,7.5,-15.2,0.49,1.97,-10.4,27.3
2016-10-27 01:03:00,0.0,1.92687,0.00039,399.407,0.031,0.2393,0.0016,139.999,45.000,31672.98723,1.93146,400.565,36.250,45.070,45.000,0.00,0.07,-272.89,-272.92,-8,525,-948,20.6,7.6,-15.4,21.1,7.5,-15.2,0.50,2.01,-10.4,27.3
2016-10-27 01:04:00,0.0,1.92672,0.00039,399.384,0.039,0.2388,0.0014,139.998,45.000,31674.96247,1.93125,400.537,36.246,45.070,45.000,0.00,0.07,-272.88,-272.91,-8,525,-948,20.6,7.6,-15.4,21.1,7.5,-15.2,0.49,1.76,-10.4,27.3
2016-10-27 01:05:00,0.0,1.92692,0.00033,399.399,0.036,0.2362,0.0022,140.000,45.000,31676.03754,1.93142,400.540,36.230,45.070,45.000,0.00,0.07,-272.89,-272.92,-6,525,-948,20.6,7.5,-15.6,21.1,7.5,-15.3,0.49,2.14,-10.4,27.3
2016-10-27 01:06:00,0.0,1.92687,0.00038,399.372,0.035,0.2369,0.0020,140.000,45.000,31675.88848,1.93139,400.517,36.238,45.070,45.000,0.00,0.07,-272.88,-272.93,-8,525,-949,20.6,7.6,-15.5,21.0,7.5,-15.3,0.49,1.76,-10.4,27.3
2016-10-27 01:07:00,0.0,1.92700,0.00031,399.397,0.046,0.2379,0.0021,140.001,45.000,31676.62090,1.93155,400.546,36.211,45.070,45.000,0.00,0.07,-272.87,-272.91,-8,526,-949,20.6,7.6,-15.5,21.0,7.5,-15.3,0.49,2.02,-10.4,27.3
2016-10-27 01:08:00,0.0,1.92691,0.00036,399.325,0.035,0.2396,0.0019,140.000,45.000,31674.95509,1.93145,400.483,36.199,45.071,45.000,0.00,0.07,-272.87,-272.92,-6,525,-949,20.6,7.6,-15.4,21.0,7.5,-15.2,0.50,1.96,-10.4,27.3
2016-10-27 01:09:00,0.0,1.92700,0.00035,399.304,0.029,0.2401,0.0018,140.001,45.000,31674.57222,1.93158,400.464,36.195,45.071,45.000,0.00,0.07,-272.88,-272.92,-7,525,-949,20.6,7.7,-15.4,21.1,7.6,-15.2,0.49,1.79,-10.4,27.2
2016-10-27 01:10:00,0.0,1.92710,0.00040,399.308,0.031,0.2410,0.0017,140.001,45.000,31674.24388,1.93168,400.473,36.193,45.071,45.000,0.00,0.07,-272.88,-272.92,-7,525,-949,20.6,7.7,-15.4,21.0,7.6,-15.1,0.50,2.13,-10.4,27.3
2016-10-27 01:11:00,0.0,1.92705,0.00032,399.273,0.030,0.2416,0.0019,140.002,45.000,31676.44665,1.93168,400.440,36.215,45.071,45.000,0.00,0.07,-272.87,-272.92,-6,525,-949,20.6,7.7,-15.3,21.0,7.6,-15.1,0.50,1.74,-10.4,27.2
2016-10-27 01:12:00,0.0,1.92730,0.00029,399.327,0.034,0.2391,0.0018,140.000,45.000,31674.56593,1.93188,400.481,36.233,45.071,45.000,0.00,0.07,-272.89,-272.92,-8,525,-949,20.6,7.6,-15.4,21.0,7.6,-15.2,0.49,2.05,-10.4,27.3
2016-10-27 01:13:00,0.0,1.92727,0.00038,399.319,0.034,0.2423,0.0021,139.999,45.000,31674.93391,1.93188,400.490,36.242,45.070,45.000,0.00,0.07,-272.88,-272.92,-7,525,-949,20.6,7.7,-15.3,21.0,7.6,-15.1,0.50,1.92,-10.4,27.3
2016-10-27 01:14:00,0.0,1.92728,0.00037,399.293,0.025,0.2425,0.0013,140.000,45.000,31676.96928,1.93189,400.465,36.244,45.070,45.000,0.00,0.07,-272.88,-272.91,-6,525,-949,20.6,7.7,-15.2,21.1,7.6,-15.1,0.49,1.82,-10.4,27.3
2016-10-27 01:15:00,0.0,1.92765,0.00042,399.403,0.096,0.2386,0.0029,140.000,45.000,31678.10002,1.93221,400.552,36.246,45.070,45.000,0.00,0.07,-272.89,-272.92,-8,525,-949,20.6,7.6,-15.4,21.0,7.6,-15.2,0.50,2.12,-10.4,27.3
2016-10-27 01:16:00,0.0,1.92778,0.00032,399.841,0.175,0.2365,0.0020,140.001,45.000,31679.55780,1.93228,400.976,36.250,45.070,45.000,0.00,0.07,-272.88,-272.92,-7,526,-949,20.6,7.6,-15.5,21.0,7.5,-15.3,0.49,1.73,-10.4,27.3
2016-10-27 01:17:00,0.0,1.92782,0.00030,400.221,0.138,0.2373,0.0020,140.001,45.000,31679.32261,1.93234,401.373,36.248,45.070,45.000,0.00,0.07,-272.88,-272.91,-7,525,-949,20.6,7.6,-15.5,21.0,7.5,-15.3,0.49,2.08,-10.4,27.3
2016-10-27 01:18:00,0.0,1.92812,0.00038,400.176,0.312,0.2392,0.0024,140.001,45.000,31679.55226,1.93265,401.330,36.249,45.070,45.000,0.00,0.07,-272.87,-272.92,-8,525,-949,20.6,7.6,-15.4,21.0,7.5,-15.2,0.50,1.89,-10.4,27.3
2016-10-27 01:19:00,0.0,1.92816,0.00038,399.801,0.235,0.2401,0.0016,139.998,45.000,31677.48131,1.93277,400.972,36.216,45.070,45.000,0.00,0.07,-272.89,-272.92,-6,525,-949,20.6,7.7,-15.4,21.0,7.6,-15.2,0.49,1.85,-10.4,27.2
2016-10-27 01:20:00,0.0,1.92832,0.00037,399.483,0.094,0.2402,0.0018,139.998,45.000,31678.60358,1.93288,400.645,36.193,45.070,45.000,0.00,0.07,-272.88,-272.92,-7,525,-949,20.6,7.7,-15.3,21.0,7.6,-15.2,0.50,2.10,-10.4,27.3
2016-10-27 01:21:00,0.0,1.92826,0.00035,399.446,0.043,0.2398,0.0016,139.999,45.000,31679.31764,1.93284,400.607,36.188,45.071,45.000,0.00,0.07,-272.87,-272.91,-8,525,-949,20.6,7.7,-15.4,21.0,7.6,-15.2,0.50,1.73,-10.4,27.3
2016-10-27 01:22:00,0.0,1.92870,0.00034,399.348,0.040,0.2402,0.0020,140.000,45.000,31676.47322,1.93328,400.509,36.178,45.071,45.000,0.00,0.07,-272.89,-272.92,-6,525,-949,20.6,7.7,-15.4,21.0,7.6,-15.2,0.49,2.09,-10.4,27.3
2016-10-27 01:23:00,0.0,1.92883,0.00023,399.323,0.028,0.2417,0.0012,140.001,45.000,31674.59642,1.93344,400.491,36.173,45.071,45.000,0.00,0.07,-272.88,-272.93,-7,525,-949,20.6,7.7,-15.3,21.0,7.6,-15.1,0.50,1.87,-10.4,27.3
2016-10-27 01:24:00,0.0,1.92892,0.00035,399.323,0.035,0.2408,0.0014,140.003,45.000,31675.32705,1.93352,400.486,36.183,45.071,45.000,0.00,0.07,-272.88,-272.91,-8,525,-949,20.6,7.7,-15.3,21.1,7.6,-15.1,0.49,1.88,-10.4,27.2
2016-10-27 01:25:00,0.0,1.92861,0.00029,399.330,0.024,0.2412,0.0021,140.000,45.000,31676.15144,1.93321,400.494,36.186,45.071,45.000,0.00,0.07,-272.88,-272.92,-6,525,-949,20.6,7.7,-15.3,21.1,7.6,-15.1,0.50,2.10,-10.4,27.2
2016-10-27 01:26:00,0.0,1.92874,0.00029,399.284,0.031,0.2392,0.0020,139.999,45.000,31675.35040,1.93331,400.441,36.188,45.071,45.000,0.00,0.07,-272.89,-272.92,-7,525,-949,20.6,7.7,-15.4,21.0,7.6,-15.2,0.49,1.73,-10.4,27.2
2016-10-27 01:27:00,0.0,1.92913,0.00040,399.434,0.139,0.2315,0.0038,140.001,45.000,31676.98264,1.93353,400.550,36.191,45.070,45.000,0.00,0.07,-272.88,-272.91,-8,525,-949,20.5,7.4,-15.8,21.0,7.4,-15.4,0.50,2.10,-10.4,27.2
2016-10-27 01:28:00,0.0,1.92946,0.00041,399.365,0.045,0.2294,0.0016,140.001,45.000,31673.81894,1.93385,400.475,36.192,45.070,45.000,0.00,0.07,-272.87,-272.91,-6,525,-949,20.6,7.3,-15.9,21.0,7.3,-15.6,0.50,1.85,-10.5,27.2
2016-10-27 01:29:00,0.0,1.92953,0.00023,399.404,0.049,0.2273,0.0025,140.001,45.000,31673.45377,1.93386,400.502,36.205,45.070,45.000,0.00,0.07,-272.89,-272.92,-7,525,-949,20.6,7.3,-16.0,21.0,7.2,-15.7,0.49,1.90,-10.4,27.2
2016-10-27 01:30:00,0.0,1.92966,0.00045,399.411,0.034,0.2279,0.0016,140.000,45.000,31674.98174,1.93400,400.511,36.194,45.070,45.000,0.00,0.07,-272.88,-272.92,-7,525,-949,20.6,7.3,-16.0,21.0,7.2,-15.8,0.50,2.08,-10.4,27.2
2016-10-27 01:31:00,0.0,1.92954,0.00040,399.459,0.037,0.2278,0.0016,139.998,45.000,31675.18302,1.93389,400.558,36.189,45.070,45.000,0.00,0.07,-272.87,-272.92,-6,525,-949,20.5,7.3,-16.0,21.0,7.2,-15.8,0.50,1.73,-10.4,27.2
2016-10-27 01:32:00,0.0,1.92976,0.00022,399.450,0.063,0.2268,0.0018,140.000,45.000,31676.01230,1.93409,400.547,36.194,45.070,45.000,0.00,0.07,-272.88,-272.91,-8,525,-949,20.5,7.3,-16.0,21.0,7.2,-15.8,0.49,2.12,-10.5,27.2
2016-10-27 01:33:00,0.0,1.92969,0.00031,399.429,0.039,0.2274,0.0019,140.000,45.000,31675.82924,1.93405,400.530,36.190,45.070,45.000,0.00,0.07,-272.88,-272.92,-7,525,-949,20.5,7.3,-16.0,21.0,7.2,-15.8,0.50,1.83,-10.5,27.2
2016-10-27 01:34:00,0.0,1.93005,0.00044,399.493,0.076,0.2268,0.0020,139.997,45.000,31675.40081,1.93436,400.587,36.179,45.070,45.000,0.00,0.07,-272.88,-272.91,-6,525,-949,20.6,7.3,-16.0,21.0,7.2,-15.8,0.49,1.92,-10.5,27.2
2016-10-27 01:35:00,0.0,1.92991,0.00047,399.384,0.039,0.2270,0.0014,140.000,45.000,31676.63402,1.93429,400.481,36.175,45.070,45.000,0.00,0.07,-272.88,-272.92,-8,525,-949,20.6,7.3,-16.0,21.0,7.2,-15.8,0.50,2.06,-10.5,27.2
2016-10-27 01:36:00,0.0,1.93016,0.00035,399.459,0.084,0.2266,0.0017,139.998,45.000,31675.01416,1.93443,400.551,36.186,45.071,45.000,0.00,0.07,-272.88,-272.92,-7,525,-949,20.5,7.3,-16.0,21.0,7.2,-15.8,0.49,1.73,-10.5,27.2
2016-10-27 01:37:00,0.0,1.93037,0.00041,399.606,0.065,0.2259,0.0021,140.003,45.000,31675.20169,1.93469,400.696,36.184,45.070,45.000,0.00,0.07,-272.88,-272.91,-6,525,-949,20.5,7.3,-16.0,21.0,7.2,-15.9,0.50,2.12,-10.5,27.2
2016-10-27 01:38:00,0.0,1.93046,0.00041,399.734,0.052,0.2271,0.0018,139.999,45.000,31674.40802,1.93479,400.830,36.183,45.070,45.000,0.00,0.07,-272.87,-272.91,-8,525,-949,20.5,7.3,-16.0,21.0,7.2,-15.8,0.50,1.82,-10.5,27.2
2016-10-27 01:39:00,0.0,1.93062,0.00038,399.852,0.080,0.2276,0.0022,140.001,45.000,31675.44112,1.93496,400.948,36.187,45.070,45.000,0.00,0.07,-272.89,-272.91,-7,525,-949,20.5,7.3,-16.0,21.0,7.2,-15.8,0.49,1.92,-10.5,27.2
2016-10-27 01:40:00,0.0,1.93097,0.00032,400.121,0.112,0.2275,0.0018,140.001,45.000,31673.20983,1.93529,401.222,36.189,45.070,45.000,0.00,0.07,-272.88,-272.92,-6,525,-949,20.5,7.3,-16.0,21.0,7.2,-15.8,0.50,2.06,-10.5,27.2
2016-10-27 01:41:00,0.0,1.93086,0.00031,400.391,0.117,0.2293,0.0017,139.999,45.000,31673.45563,1.93527,401.494,36.188,45.070,45.000,0.00,0.07,-272.88,-272.91,-8,525,-949,20.5,7.4,-15.9,21.0,7.2,-15.7,0.50,1.74,-10.5,27.2
2016-10-27 01:42:00,0.0,1.93112,0.00030,400.444,0.279,0.2294,0.0018,140.002,45.000,31675.11795,1.93549,401.550,36.189,45.070,45.000,0.00,0.07,-272.89,-272.91,-6,525,-949,20.5,7.4,-15.9,21.0,7.3,-15.7,0.50,2.12,-10.5,27.2
2016-10-27 01:43:00,0.0,1.93090,0.00042,400.412,0.173,0.2298,0.0023,139.998,45.000,31674.70690,1.93530,401.531,36.188,45.070,45.000,0.00,0.07,-272.88,-272.92,-6,525,-949,20.5,7.4,-15.8,21.0,7.3,-15.7,0.50,1.82,-10.5,27.2
2016-10-27 01:44:00,0.0,1.93115,0.00027,400.394,0.174,0.2301,0.0013,140.002,45.000,31675.99009,1.93553,401.504,36.185,45.070,45.000,0.00,0.07,-272.88,-272.91,-8,525,-949,20.5,7.4,-15.9,21.0,7.3,-15.6,0.49,1.92,-10.5,27.2
2016-10-27 01:45:00,0.0,1.93150,0.00029,400.748,0.098,0.2308,0.0014,140.000,45.000,31674.64633,1.93590,401.867,36.182,45.070,45.000,0.00,0.07,-272.88,-272.92,-7,525,-948,20.5,7.4,-15.9,21.0,7.3,-15.6,0.50,2.06,-10.5,27.2